Location: Newark
(48.1333°N, 17.1000°E)
Time: 21:00:23
(UTC+00:00)

N. Korean satellite - Pass Details

Date: 02 February 2020
Orbit: 456 x 505 km, 97.2° (Epoch: 26 February)

Event Time Altitude Azimuth Distance (km) Brightness Sun altitude
Rises 03:50:55 0° 26° (NNE) 2,566 10.6 -24.9°
Reaches altitude 10° 03:53:25 10° 44° (NE) 1,689 9.9 -24.5°
Maximum altitude 03:56:08 20° 93° (E) 1,199 9.4 -24.0°
Drops below altitude 10° 03:58:53 10° 142° (SE) 1,695 9.8 -23.6°
Sets 04:01:23 0° 159° (SSE) 2,579 10.5 -23.1°
